Weather Roundup
Issued by NWS Springfield, MO

Home | Current Version | Previous Version | Text Only | Print | Product List | Glossary On
Versions: 1 2 3 4 5 6 7 8 9 10 11 12 13 14 15 16 17 18 19 20 21 22 23 24 25 26 27 28 29 30 31 32 33 34 35 36 37 38 39 40 41 42 43 44 45 46 47 48 49 50
938
NZUS99 KSGF 211857
HRRSGF

HOURLY WEATHER
NATIONAL WEATHER SERVICE SPRINGFIELD MO
200 PM CDT SAT OCT 21 2017

......SGF CWA......

CITY           SKY/WX    TMP DP  RH WIND       PRES   REMARKS
SPRINGFIELD    MOSUNNY   78  64  61 SE17G26   29.91F
JOPLIN         PTSUNNY   79  64  60 S22G29    29.87F
WEST PLAINS    CLOUDY    75  64  68 S15G23    30.03F
ROLLA          PTSUNNY   75  62  64 S21G32    29.98F
BRANSON        PTSUNNY   77  61  57 S13G21    29.98F

......SURROUNDING SGF CWA......

CITY           SKY/WX    TMP DP  RH WIND       PRES   REMARKS
CHANUTE        CLOUDY    74  65  73 S15G24    29.84F
PARSONS        CLOUDY    74  65  73 S10G20    29.85F
COFFEYVILLE    CLOUDY    76  65  68 S15G24    29.84F
EMPORIA        LGT RAIN  74  63  68 S25G37    29.79R
HARRISON AR    CLOUDY    75  63  66 S10G23    29.99F

......KANSAS AND MISSOURI......

CITY           SKY/WX    TMP DP  RH WIND       PRES   REMARKS
KANSAS CTY INT CLOUDY    73  63  70 SW23G30   29.81R
DOWNTOWN KC    CLOUDY    76  65  68 S13       29.81F
COLUMBIA       MOSUNNY   78  63  59 S20G26    29.91F
SEDALIA        MOSUNNY   80  63  55 S20G29    29.89F
ST JOSEPH      LGT RAIN  70  65  84 S12G23    29.79S
ST LOUIS       CLOUDY    75  62  64 S15G22    30.00F
SPIRIT OF STL  MOSUNNY   76  64  66 SE7       29.98F
WICHITA        CLOUDY    74  66  76 S20G29    29.77F
TOPEKA         CLOUDY    74  65  73 S15G29    29.77F
OLATHE         CLOUDY    73  63  70 S18G29    29.81F

......TENNESSEE......

CITY           SKY/WX    TMP DP  RH WIND       PRES   REMARKS
MEMPHIS        MOSUNNY   81  62  52 SE17      30.07F
NASHVILLE      CLOUDY    78  55  44 S13       30.19F

......ARKANSAS.......

CITY           SKY/WX    TMP DP  RH WIND       PRES   REMARKS
FAYETTEVILLE   CLOUDY    76  66  71 S20       29.94F
FT SMITH       MOSUNNY   81  64  56 S16G25    29.93F
LITTLE ROCK    CLOUDY    78  69  73 S13       30.01F

......OKLAHOMA.......

CITY           SKY/WX    TMP DP  RH WIND       PRES   REMARKS
TULSA          CLOUDY    78  65  63 S22G33    29.83F
PONCA CITY     CLOUDY    77  63  61 S13G23    29.77F
MCALESTER      CLOUDY    79  66  64 S8G20     29.90F
OKLAHOMA CITY  PTSUNNY   79  65  62 S25G33    29.80F

......IOWA............

CITY           SKY/WX    TMP DP  RH WIND       PRES   REMARKS
DES MOINES     CLOUDY    70  60  70 S16G25    29.78F
QUAD CITIES    SUNNY     79  59  50 S20G30    29.87F

......ILLINOIS........

CITY           SKY/WX    TMP DP  RH WIND       PRES   REMARKS
QUINCY         NOT AVBL
CHICAGO        MOSUNNY   76  56  49 S17       30.00F




USA.gov is the U.S. government's official web portal to all federal, state and local government web resources and services.